| time (UTC) | temp F | wind direction | speed knots | gust knots | rain 1hr in | rain 24hr in | rain mn in | humidity % | barometer mb |
| 20260506202531 | 58 | 213 | 0.9 | 6.1 | 0.00 | 0.73 | 0.67 | 92 | 1004.9 |
| 20260506202031 | 58 | 261 | 2.6 | 6.1 | 0.00 | 0.73 | 0.67 | 92 | 1004.8 |
| 20260506201542 | 58 | 172 | 0.9 | 7.0 | 0.00 | 0.73 | 0.67 | 92 | 1004.8 |
| 20260506201031 | 58 | 227 | 1.7 | 7.0 | 0.00 | 0.73 | 0.67 | 92 | 1004.9 |
| 20260506200546 | 58 | 243 | 2.6 | 7.0 | 0.00 | 0.73 | 0.67 | 92 | 1004.8 |
| 20260506200047 | 58 | 250 | 1.7 | 5.2 | 0.00 | 0.73 | 0.67 | 93 | 1004.8 |
| 20260506195531 | 58 | 211 | 0.9 | 7.0 | 0.00 | 0.73 | 0.67 | 93 | 1004.9 |
| 20260506195033 | 58 | 182 | 2.6 | 7.0 | 0.00 | 0.73 | 0.67 | 93 | 1004.9 |
| 20260506194546 | 58 | 267 | 3.5 | 8.7 | 0.00 | 0.73 | 0.67 | 93 | 1004.9 |
| 20260506194031 | 58 | 185 | 3.5 | 8.7 | 0.01 | 0.73 | 0.67 | 93 | 1005.1 |
| 20260506193531 | 58 | 198 | 1.7 | 10.4 | 0.01 | 0.73 | 0.67 | 93 | 1005.1 |
| 20260506193048 | 58 | 199 | 3.5 | 10.4 | 0.01 | 0.73 | 0.67 | 93 | 1005.0 |
| 20260506192533 | 58 | 179 | 3.5 | 9.6 | 0.01 | 0.73 | 0.67 | 93 | 1005.2 |
| 20260506192034 | 58 | 242 | 3.5 | 9.6 | 0.02 | 0.73 | 0.67 | 93 | 1005.3 |
| 20260506191545 | 58 | 192 | 1.7 | 8.7 | 0.03 | 0.73 | 0.67 | 93 | 1005.3 |
| 20260506191032 | 58 | 194 | 1.7 | 8.7 | 0.03 | 0.73 | 0.67 | 94 | 1005.2 |
| 20260506190532 | 58 | 205 | 4.3 | 8.7 | 0.03 | 0.73 | 0.67 | 94 | 1005.3 |
| 20260506190050 | 58 | 202 | 1.7 | 9.6 | 0.03 | 0.73 | 0.67 | 94 | 1005.3 |
| 20260506185531 | 58 | 207 | 4.3 | 9.6 | 0.04 | 0.73 | 0.67 | 94 | 1005.3 |
| 20260506185031 | 58 | 244 | 2.6 | 10.4 | 0.04 | 0.73 | 0.67 | 94 | 1005.4 |
| 20260506184546 | 57 | 198 | 2.6 | 11.3 | 0.05 | 0.73 | 0.67 | 94 | 1005.4 |
| 20260506184032 | 57 | 209 | 5.2 | 11.3 | 0.04 | 0.72 | 0.66 | 94 | 1005.4 |
| 20260506183532 | 57 | 207 | 2.6 | 8.7 | 0.05 | 0.72 | 0.66 | 94 | 1005.5 |
| 20260506183045 | 57 | 217 | 2.6 | 7.8 | 0.06 | 0.72 | 0.66 | 94 | 1005.4 |
| 20260506182531 | 57 | 167 | 2.6 | 8.7 | 0.07 | 0.72 | 0.66 | 94 | 1005.5 |
| 20260506182031 | 57 | 205 | 1.7 | 8.7 | 0.07 | 0.71 | 0.65 | 94 | 1005.6 |
| 20260506181548 | 57 | 188 | 3.5 | 8.7 | 0.07 | 0.70 | 0.64 | 94 | 1005.7 |
| 20260506181032 | 57 | 169 | 3.5 | 8.7 | 0.08 | 0.70 | 0.64 | 94 | 1005.7 |
| 20260506180534 | 57 | 197 | 2.6 | 8.7 | 0.09 | 0.70 | 0.64 | 94 | 1005.7 |
| 20260506175533 | 57 | 227 | 1.7 | 10.4 | 0.11 | 0.69 | 0.63 | 94 | 1005.8 |
| 20260506175031 | 57 | 212 | 2.6 | 10.4 | 0.12 | 0.69 | 0.63 | 94 | 1005.8 |
| 20260506174544 | 57 | 196 | 3.5 | 10.4 | 0.12 | 0.68 | 0.62 | 94 | 1005.8 |
| 20260506174031 | 57 | 224 | 3.5 | 7.8 | 0.13 | 0.68 | 0.62 | 94 | 1005.7 |
| 20260506173531 | 57 | 200 | 2.6 | 7.8 | 0.14 | 0.67 | 0.61 | 94 | 1005.8 |
| 20260506173051 | 57 | 213 | 2.6 | 7.8 | 0.14 | 0.66 | 0.60 | 94 | 1005.8 |
| 20260506172532 | 57 | 200 | 2.6 | 8.7 | 0.14 | 0.65 | 0.58 | 94 | 1005.8 |
| 20260506172031 | 57 | 206 | 3.5 | 9.6 | 0.14 | 0.64 | 0.58 | 94 | 1005.8 |
| 20260506171550 | 57 | 227 | 3.5 | 9.6 | 0.14 | 0.63 | 0.57 | 94 | 1005.8 |
| 20260506171034 | 57 | 214 | 4.3 | 10.4 | 0.14 | 0.62 | 0.56 | 94 | 1005.7 |
| 20260506170531 | 57 | 202 | 1.7 | 10.4 | 0.14 | 0.61 | 0.55 | 94 | 1005.7 |
| 20260506170058 | 57 | 209 | 2.6 | 8.7 | 0.12 | 0.58 | 0.52 | 94 | 1005.8 |
| 20260506165531 | 56 | 217 | 2.6 | 8.7 | 0.12 | 0.58 | 0.52 | 94 | 1005.7 |
| 20260506165032 | 56 | 246 | 2.6 | 7.8 | 0.12 | 0.57 | 0.51 | 93 | 1005.7 |
| 20260506164541 | 56 | 229 | 2.6 | 7.8 | 0.11 | 0.56 | 0.50 | 93 | 1005.9 |
| 20260506164032 | 56 | 218 | 2.6 | 7.8 | 0.10 | 0.54 | 0.48 | 93 | 1005.8 |
| 20260506163531 | 56 | 221 | 3.5 | 10.4 | 0.10 | 0.52 | 0.47 | 93 | 1005.9 |
| 20260506163105 | 56 | 221 | 1.7 | 10.4 | 0.10 | 0.52 | 0.46 | 93 | 1005.8 |
| 20260506162533 | 56 | 202 | 2.6 | 10.4 | 0.09 | 0.50 | 0.44 | 94 | 1005.8 |
| 20260506162034 | 56 | 193 | 2.6 | 7.8 | 0.10 | 0.50 | 0.44 | 94 | 1005.8 |
| 20260506161545 | 56 | 249 | 1.7 | 8.7 | 0.10 | 0.49 | 0.43 | 94 | 1005.8 |
| 20260506161032 | 56 | 211 | 3.5 | 8.7 | 0.10 | 0.48 | 0.42 | 94 | 1006.0 |
| 20260506160532 | 56 | 212 | 1.7 | 7.0 | 0.10 | 0.47 | 0.41 | 94 | 1006.1 |
| 20260506160045 | 56 | 212 | 1.7 | 7.0 | 0.11 | 0.47 | 0.41 | 94 | 1006.1 |
| 20260506155531 | 56 | 254 | 1.7 | 7.0 | 0.11 | 0.46 | 0.40 | 94 | 1006.2 |
| 20260506155032 | 56 | 211 | 1.7 | 12.2 | 0.11 | 0.45 | 0.39 | 94 | 1006.2 |
| 20260506154607 | 56 | 0 | 0.9 | 12.2 | 0.11 | 0.44 | 0.38 | 94 | 1006.2 |
| 20260506154033 | 56 | 204 | 1.7 | 7.8 | 0.12 | 0.44 | 0.38 | 94 | 1006.1 |
| 20260506153531 | 56 | 270 | 1.7 | 11.3 | 0.13 | 0.43 | 0.37 | 94 | 1006.1 |
| 20260506153051 | 56 | 169 | 3.5 | 11.3 | 0.12 | 0.42 | 0.36 | 94 | 1006.2 |
| 20260506152531 | 56 | 194 | 2.6 | 8.7 | 0.12 | 0.41 | 0.35 | 94 | 1006.3 |
| 20260506152031 | 56 | 198 | 2.6 | 6.1 | 0.12 | 0.40 | 0.34 | 94 | 1006.3 |
| 20260506151548 | 56 | 188 | 2.6 | 6.1 | 0.12 | 0.39 | 0.33 | 94 | 1006.5 |
| 20260506151031 | 56 | 217 | 2.6 | 7.0 | 0.12 | 0.38 | 0.32 | 94 | 1006.4 |
| 20260506150531 | 56 | 226 | 1.7 | 8.7 | 0.12 | 0.37 | 0.31 | 94 | 1006.6 |
| 20260506150045 | 56 | 0 | 2.6 | 10.4 | 0.12 | 0.36 | 0.30 | 94 | 1006.6 |
| 20260506145532 | 56 | 178 | 2.6 | 10.4 | 0.12 | 0.35 | 0.29 | 95 | 1006.6 |
| 20260506145030 | 56 | 249 | 3.5 | 10.4 | 0.12 | 0.34 | 0.28 | 95 | 1006.8 |
| 20260506144542 | 56 | 207 | 4.3 | 10.4 | 0.12 | 0.33 | 0.27 | 95 | 1006.7 |
| 20260506144032 | 56 | 249 | 1.7 | 8.7 | 0.11 | 0.31 | 0.25 | 95 | 1006.8 |
| 20260506143534 | 56 | 190 | 0.9 | 8.7 | 0.11 | 0.30 | 0.24 | 95 | 1006.8 |
| 20260506143104 | 56 | 202 | 2.6 | 8.7 | 0.12 | 0.30 | 0.24 | 95 | 1006.8 |
| 20260506142531 | 56 | 165 | 0.9 | 7.8 | 0.12 | 0.29 | 0.23 | 95 | 1007.0 |
| 20260506142031 | 56 | 238 | 3.5 | 7.8 | 0.11 | 0.28 | 0.22 | 95 | 1007.1 |
| 20260506141547 | 56 | 171 | 2.6 | 7.8 | 0.10 | 0.27 | 0.21 | 95 | 1007.1 |
| 20260506141034 | 56 | 160 | 1.7 | 7.0 | 0.10 | 0.26 | 0.20 | 95 | 1007.2 |
| 20260506140533 | 56 | 226 | 1.7 | 7.0 | 0.09 | 0.25 | 0.19 | 95 | 1007.2 |
| 20260506140045 | 55 | 187 | 1.7 | 7.0 | 0.08 | 0.24 | 0.18 | 95 | 1007.2 |
| 20260506135534 | 55 | 0 | 1.7 | 4.3 | 0.07 | 0.23 | 0.17 | 95 | 1007.2 |
| 20260506135031 | 55 | 296 | 1.7 | 4.3 | 0.06 | 0.22 | 0.16 | 95 | 1007.1 |
| 20260506134545 | 55 | 178 | 1.7 | 5.2 | 0.06 | 0.21 | 0.15 | 95 | 1007.1 |
| 20260506134031 | 55 | 235 | 0.9 | 5.2 | 0.05 | 0.20 | 0.14 | 95 | 1007.2 |
| 20260506133531 | 55 | 0 | 1.7 | 5.2 | 0.05 | 0.19 | 0.13 | 95 | 1007.2 |
| 20260506133043 | 55 | 0 | 0.9 | 6.1 | 0.04 | 0.18 | 0.12 | 95 | 1007.3 |
| 20260506132532 | 54 | 0 | 1.7 | 6.1 | 0.04 | 0.17 | 0.11 | 95 | 1007.2 |
| 20260506132031 | 54 | 286 | 0.9 | 2.6 | 0.05 | 0.17 | 0.11 | 95 | 1007.0 |
| 20260506131546 | 54 | 0 | 0.9 | 2.6 | 0.06 | 0.17 | 0.11 | 95 | 1006.9 |
| 20260506131032 | 54 | 288 | 0.0 | 1.7 | 0.05 | 0.16 | 0.10 | 95 | 1007.1 |
| 20260506130531 | 54 | 0 | 0.0 | 1.7 | 0.05 | 0.16 | 0.10 | 95 | 1007.2 |
| 20260506130043 | 53 | 40 | 0.0 | 1.7 | 0.06 | 0.16 | 0.10 | 95 | 1007.2 |
| 20260506125531 | 53 | 40 | 0.0 | 1.7 | 0.06 | 0.16 | 0.10 | 95 | 1007.2 |
| 20260506125035 | 53 | 40 | 0.0 | 1.7 | 0.06 | 0.16 | 0.10 | 95 | 1007.1 |
| 20260506124543 | 53 | 0 | 0.0 | 1.7 | 0.06 | 0.15 | 0.09 | 95 | 1007.1 |
| 20260506124032 | 53 | 40 | 0.9 | 1.7 | 0.06 | 0.15 | 0.09 | 95 | 1007.1 |
| 20260506123532 | 53 | 40 | 0.0 | 0.9 | 0.06 | 0.14 | 0.08 | 95 | 1007.0 |
| 20260506123048 | 53 | 40 | 0.0 | 0.9 | 0.06 | 0.14 | 0.08 | 95 | 1007.1 |
| 20260506122532 | 53 | 0 | 0.0 | 1.7 | 0.05 | 0.13 | 0.07 | 95 | 1007.3 |
| 20260506122031 | 53 | 0 | 0.0 | 1.7 | 0.04 | 0.12 | 0.06 | 95 | 1007.3 |
| 20260506121546 | 52 | 40 | 0.0 | 1.7 | 0.03 | 0.11 | 0.05 | 95 | 1007.3 |
| 20260506121031 | 52 | 0 | 0.0 | 0.0 | 0.04 | 0.11 | 0.05 | 95 | 1007.6 |
| 20260506120531 | 52 | 0 | 0.0 | 0.0 | 0.04 | 0.11 | 0.05 | 95 | 1007.8 |
| 20260506120055 | 52 | 0 | 0.0 | 0.9 | 0.03 | 0.10 | 0.04 | 95 | 1007.9 |
| 20260506115530 | 52 | 0 | 0.0 | 0.9 | 0.03 | 0.10 | 0.04 | 95 | 1008.0 |
| 20260506115030 | 52 | 0 | 0.0 | 0.9 | 0.03 | 0.10 | 0.04 | 95 | 1008.1 |
| 20260506114553 | 52 | 0 | 0.0 | 0.9 | 0.03 | 0.09 | 0.03 | 95 | 1008.1 |
| 20260506114032 | 52 | 0 | 0.0 | 0.9 | 0.03 | 0.09 | 0.03 | 95 | 1008.3 |
| 20260506113530 | 52 | 0 | 0.0 | 0.9 | 0.02 | 0.08 | 0.02 | 95 | 1008.0 |
| 20260506113047 | 52 | 0 | 0.0 | 0.9 | 0.02 | 0.08 | 0.02 | 95 | 1008.0 |
| 20260506112533 | 52 | 0 | 0.0 | 0.9 | 0.02 | 0.08 | 0.02 | 95 | 1007.9 |
| 20260506112032 | 52 | 0 | 0.0 | 0.9 | 0.02 | 0.08 | 0.02 | 95 | 1007.8 |
| 20260506111549 | 51 | 0 | 0.0 | 0.9 | 0.02 | 0.08 | 0.02 | 95 | 1007.8 |
| 20260506111031 | 51 | 0 | 0.0 | 0.9 | 0.01 | 0.07 | 0.01 | 95 | 1007.7 |
| 20260506110531 | 51 | 0 | 0.0 | 1.7 | 0.01 | 0.07 | 0.01 | 95 | 1007.6 |
| 20260506110054 | 51 | 0 | 0.0 | 1.7 | 0.01 | 0.07 | 0.01 | 95 | 1007.5 |
| 20260506105531 | 51 | 0 | 0.0 | 2.6 | 0.01 | 0.07 | 0.01 | 95 | 1007.2 |
| 20260506105032 | 51 | 0 | 0.9 | 2.6 | 0.01 | 0.07 | 0.01 | 95 | 1007.3 |
| 20260506104546 | 51 | 344 | 0.9 | 2.6 | 0.00 | 0.06 | 0.00 | 95 | 1007.4 |
| 20260506104032 | 51 | 234 | 1.7 | 2.6 | 0.00 | 0.06 | 0.00 | 95 | 1007.4 |
| 20260506103531 | 51 | 0 | 0.0 | 1.7 | 0.00 | 0.06 | 0.00 | 95 | 1007.0 |
| 20260506103048 | 51 | 0 | 0.0 | 1.7 | 0.00 | 0.06 | 0.00 | 95 | 1007.4 |
| 20260506102532 | 51 | 11 | 0.0 | 1.7 | 0.00 | 0.06 | 0.00 | 95 | 1007.3 |
| 20260506102032 | 51 | 0 | 0.0 | 2.6 | 0.00 | 0.06 | 0.00 | 95 | 1007.3 |
| 20260506101556 | 51 | 0 | 0.0 | 2.6 | 0.00 | 0.06 | 0.00 | 95 | 1007.2 |
| 20260506101031 | 51 | 11 | 0.0 | 2.6 | 0.00 | 0.06 | 0.00 | 95 | 1007.1 |
| 20260506100532 | 51 | 11 | 0.0 | 0.9 | 0.00 | 0.06 | 0.00 | 95 | 1007.2 |
| 20260506100048 | 51 | 0 | 0.0 | 0.9 | 0.00 | 0.06 | 0.00 | 95 | 1007.0 |
| 20260506095531 | 50 | 0 | 0.0 | 1.7 | 0.00 | 0.06 | 0.00 | 95 | 1006.9 |
| 20260506095031 | 50 | 0 | 0.0 | 1.7 | 0.00 | 0.06 | 0.00 | 95 | 1007.1 |
| 20260506094606 | 50 | 0 | 0.0 | 1.7 | 0.00 | 0.06 | 0.00 | 95 | 1007.1 |
| 20260506094032 | 50 | 0 | 0.0 | 1.7 | 0.00 | 0.06 | 0.00 | 95 | 1007.2 |
| 20260506093536 | 50 | 0 | 0.0 | 1.7 | 0.00 | 0.06 | 0.00 | 95 | 1007.1 |
| 20260506093049 | 50 | 11 | 0.0 | 0.9 | 0.00 | 0.06 | 0.00 | 95 | 1006.9 |
| 20260506092531 | 50 | 0 | 0.0 | 1.7 | 0.00 | 0.06 | 0.00 | 95 | 1007.1 |
| 20260506092031 | 50 | 0 | 0.0 | 1.7 | 0.00 | 0.06 | 0.00 | 95 | 1007.1 |
| 20260506091542 | 50 | 0 | 0.0 | 1.7 | 0.00 | 0.06 | 0.00 | 95 | 1007.2 |
| 20260506091031 | 50 | 0 | 0.0 | 1.7 | 0.00 | 0.06 | 0.00 | 95 | 1006.9 |
| 20260506090531 | 50 | 0 | 0.0 | 1.7 | 0.00 | 0.06 | 0.00 | 95 | 1007.0 |
| 20260506090042 | 50 | 0 | 0.0 | 2.6 | 0.00 | 0.06 | 0.00 | 95 | 1007.1 |
| 20260506085530 | 50 | 11 | 0.0 | 2.6 | 0.00 | 0.06 | 0.00 | 95 | 1007.1 |
| 20260506085030 | 50 | 11 | 0.0 | 1.7 | 0.00 | 0.06 | 0.00 | 95 | 1007.1 |
| 20260506084541 | 50 | 0 | 0.0 | 1.7 | 0.00 | 0.06 | 0.00 | 95 | 1007.2 |
| 20260506084031 | 50 | 11 | 0.0 | 1.7 | 0.00 | 0.06 | 0.00 | 95 | 1007.3 |
| 20260506083531 | 50 | 0 | 0.0 | 1.7 | 0.00 | 0.06 | 0.00 | 95 | 1007.2 |
| 20260506083049 | 50 | 0 | 0.0 | 1.7 | 0.00 | 0.06 | 0.00 | 95 | 1007.4 |
| 20260506082533 | 50 | 11 | 0.0 | 0.9 | 0.00 | 0.06 | 0.00 | 95 | 1007.3 |
| 20260506082033 | 50 | 0 | 0.0 | 0.9 | 0.00 | 0.06 | 0.00 | 95 | 1007.4 |
| 20260506081547 | 50 | 0 | 0.0 | 0.9 | 0.00 | 0.06 | 0.00 | 95 | 1007.5 |
| 20260506081034 | 50 | 0 | 0.0 | 1.7 | 0.00 | 0.06 | 0.00 | 95 | 1007.7 |
| 20260506080533 | 50 | 0 | 0.0 | 1.7 | 0.00 | 0.06 | 0.00 | 95 | 1007.7 |
| 20260506073047 | 51 | 0 | 0.0 | 0.9 | 0.00 | 0.06 | 0.00 | 95 | 1007.8 |
| 20260506072532 | 51 | 0 | 0.0 | 0.9 | 0.00 | 0.06 | 0.00 | 94 | 1008.0 |
| 20260506072034 | 51 | 0 | 0.0 | 0.9 | 0.00 | 0.06 | 0.00 | 94 | 1008.0 |
| 20260506071550 | 51 | 0 | 0.0 | 1.7 | 0.00 | 0.06 | 0.00 | 94 | 1008.0 |
| 20260506071032 | 51 | 0 | 0.0 | 1.7 | 0.00 | 0.06 | 0.00 | 94 | 1008.0 |
| 20260506070533 | 51 | 0 | 0.0 | 1.7 | 0.00 | 0.06 | 0.00 | 95 | 1008.1 |
| 20260506062033 | 51 | 0 | 0.0 | 1.7 | 0.00 | 0.06 | 0.00 | 94 | 1008.5 |
| 20260506061547 | 51 | 0 | 0.0 | 1.7 | 0.00 | 0.06 | 0.00 | 94 | 1008.6 |
| 20260506061033 | 51 | 0 | 0.0 | 1.7 | 0.00 | 0.06 | 0.00 | 94 | 1008.6 |
| 20260506060534 | 51 | 0 | 0.0 | 0.9 | 0.00 | 0.06 | 0.00 | 94 | 1008.6 |
| 20260506051032 | 52 | 0 | 0.0 | 0.9 | 0.00 | 0.06 | 0.00 | 94 | 1008.9 |
| 20260506050533 | 52 | 0 | 0.0 | 0.9 | 0.00 | 0.06 | 0.00 | 94 | 1008.9 |
| 20260506045032 | 52 | 0 | 0.0 | 1.7 | 0.00 | 0.06 | 0.00 | 94 | 1009.1 |
| 20260506044551 | 53 | 0 | 0.0 | 1.7 | 0.00 | 0.06 | 0.00 | 93 | 1009.1 |
| 20260506044034 | 53 | 11 | 0.0 | 1.7 | 0.01 | 0.06 | 0.00 | 94 | 1009.0 |
| 20260506043536 | 53 | 11 | 0.0 | 1.7 | 0.01 | 0.06 | 0.00 | 93 | 1009.1 |
| 20260506043046 | 54 | 11 | 0.0 | 0.9 | 0.01 | 0.06 | 0.00 | 93 | 1009.1 |
| 20260506042532 | 54 | 11 | 0.0 | 0.9 | 0.01 | 0.06 | 0.00 | 94 | 1009.1 |
| 20260506042033 | 54 | 0 | 0.0 | 0.9 | 0.01 | 0.06 | 0.00 | 93 | 1009.1 |
| 20260506041541 | 54 | 0 | 0.0 | 0.9 | 0.01 | 0.06 | 0.00 | 93 | 1009.1 |
| 20260506041032 | 54 | 0 | 0.0 | 0.9 | 0.01 | 0.06 | 0.00 | 93 | 1009.1 |
| 20260506040621 | 55 | 0 | 0.0 | 0.9 | 0.01 | 0.06 | 0.00 | 93 | 1009.3 |
| 20260506040058 | 55 | 0 | 0.0 | 0.9 | 0.01 | 0.06 | 0.00 | 93 | 1009.3 |
| 20260506035532 | 55 | 0 | 0.0 | 1.7 | 0.01 | 0.06 | 0.06 | 93 | 1009.2 |
| 20260506035030 | 55 | 0 | 0.0 | 1.7 | 0.01 | 0.06 | 0.06 | 93 | 1009.1 |
| 20260506034543 | 55 | 11 | 0.9 | 1.7 | 0.01 | 0.06 | 0.06 | 93 | 1009.0 |
| 20260506034029 | 56 | 11 | 0.0 | 1.7 | 0.00 | 0.05 | 0.05 | 93 | 1009.1 |
| 20260506033531 | 56 | 0 | 0.9 | 1.7 | 0.00 | 0.05 | 0.05 | 93 | 1008.9 |
| 20260506033047 | 56 | 0 | 0.9 | 3.5 | 0.00 | 0.05 | 0.05 | 93 | 1009.0 |
| 20260506032531 | 56 | 63 | 0.0 | 3.5 | 0.00 | 0.05 | 0.05 | 93 | 1008.9 |
| 20260506032033 | 56 | 316 | 0.9 | 2.6 | 0.00 | 0.05 | 0.05 | 93 | 1008.8 |
| 20260506031555 | 56 | 268 | 0.9 | 2.6 | 0.00 | 0.05 | 0.05 | 93 | 1008.9 |
| 20260506031031 | 56 | 0 | 0.0 | 1.7 | 0.00 | 0.05 | 0.05 | 93 | 1008.6 |
| 20260506030532 | 56 | 0 | 0.0 | 0.9 | 0.00 | 0.05 | 0.05 | 93 | 1009.0 |
| 20260506030045 | 56 | 0 | 0.0 | 0.9 | 0.01 | 0.05 | 0.05 | 93 | 1008.9 |
| 20260506025531 | 56 | 0 | 0.0 | 1.7 | 0.03 | 0.05 | 0.05 | 92 | 1008.8 |
| 20260506025030 | 56 | 0 | 0.0 | 1.7 | 0.04 | 0.05 | 0.05 | 92 | 1008.9 |
| 20260506024543 | 56 | 0 | 0.9 | 2.6 | 0.04 | 0.05 | 0.05 | 92 | 1008.7 |
| 20260506024031 | 56 | 0 | 0.0 | 2.6 | 0.04 | 0.05 | 0.05 | 92 | 1008.9 |
| 20260506023532 | 57 | 296 | 0.0 | 2.6 | 0.04 | 0.05 | 0.05 | 92 | 1008.8 |
| 20260506023044 | 57 | 306 | 0.9 | 2.6 | 0.04 | 0.05 | 0.05 | 91 | 1008.7 |
| 20260506022532 | 57 | 306 | 0.0 | 1.7 | 0.04 | 0.05 | 0.05 | 91 | 1008.6 |
| 20260506022031 | 57 | 306 | 0.0 | 2.6 | 0.04 | 0.05 | 0.05 | 91 | 1008.7 |
| 20260506021550 | 57 | 306 | 0.9 | 2.6 | 0.04 | 0.05 | 0.05 | 90 | 1008.7 |
| 20260506021033 | 57 | 0 | 0.0 | 1.7 | 0.04 | 0.05 | 0.05 | 90 | 1008.8 |
| 20260506020534 | 58 | 0 | 0.0 | 1.7 | 0.04 | 0.05 | 0.05 | 89 | 1008.9 |
| 20260506020041 | 58 | 306 | 0.0 | 1.7 | 0.03 | 0.04 | 0.04 | 88 | 1009.0 |
| 20260506015532 | 58 | 0 | 0.0 | 1.7 | 0.01 | 0.02 | 0.02 | 87 | 1009.1 |
| 20260506015032 | 58 | 0 | 0.0 | 1.7 | 0.00 | 0.01 | 0.01 | 86 | 1008.8 |
| 20260506014543 | 58 | 0 | 0.0 | 0.0 | 0.00 | 0.01 | 0.01 | 86 | 1008.6 |
| 20260506014031 | 58 | 0 | 0.0 | 0.0 | 0.00 | 0.01 | 0.01 | 86 | 1008.5 |
| 20260506013531 | 58 | 0 | 0.0 | 0.9 | 0.00 | 0.01 | 0.01 | 86 | 1008.3 |
| 20260506013045 | 58 | 0 | 0.0 | 0.9 | 0.00 | 0.01 | 0.01 | 85 | 1008.4 |
| 20260506012530 | 59 | 0 | 0.0 | 0.9 | 0.00 | 0.01 | 0.01 | 85 | 1008.4 |
| 20260506012035 | 59 | 0 | 0.0 | 0.0 | 0.00 | 0.01 | 0.01 | 85 | 1008.3 |
| 20260506011544 | 59 | 0 | 0.0 | 1.7 | 0.00 | 0.01 | 0.01 | 85 | 1008.2 |
| 20260506011032 | 59 | 0 | 0.0 | 1.7 | 0.00 | 0.01 | 0.01 | 84 | 1008.2 |
| 20260506010531 | 59 | 0 | 0.0 | 1.7 | 0.00 | 0.01 | 0.01 | 83 | 1008.1 |
| 20260506010046 | 59 | 0 | 0.9 | 1.7 | 0.00 | 0.01 | 0.01 | 83 | 1008.2 |
| 20260506005532 | 60 | 0 | 0.0 | 1.7 | 0.00 | 0.01 | 0.01 | 83 | 1008.2 |
| 20260506005032 | 60 | 0 | 0.0 | 1.7 | 0.00 | 0.01 | 0.01 | 81 | 1008.2 |
| 20260506004541 | 60 | 0 | 0.0 | 1.7 | 0.00 | 0.01 | 0.01 | 81 | 1008.2 |
| 20260506004032 | 60 | 306 | 0.0 | 1.7 | 0.00 | 0.01 | 0.01 | 80 | 1008.1 |
| 20260506003532 | 60 | 0 | 0.0 | 1.7 | 0.00 | 0.01 | 0.01 | 79 | 1008.1 |
| 20260506003042 | 60 | 0 | 0.9 | 1.7 | 0.00 | 0.01 | 0.01 | 80 | 1008.1 |
| 20260506002532 | 61 | 0 | 0.0 | 1.7 | 0.00 | 0.01 | 0.01 | 80 | 1008.0 |
| 20260506002031 | 61 | 0 | 0.0 | 0.9 | 0.00 | 0.01 | 0.01 | 79 | 1008.1 |
| 20260506001547 | 61 | 0 | 0.0 | 1.7 | 0.00 | 0.01 | 0.01 | 77 | 1008.0 |
| 20260506001031 | 61 | 306 | 0.0 | 1.7 | 0.00 | 0.01 | 0.01 | 77 | 1008.0 |
| 20260506000531 | 61 | 306 | 0.0 | 1.7 | 0.00 | 0.01 | 0.01 | 77 | 1007.9 |
| 20260506000046 | 62 | 0 | 0.0 | 4.3 | 0.00 | 0.01 | 0.01 | 76 | 1007.9 |
| 20260505235531 | 62 | 0 | 0.9 | 4.3 | 0.00 | 0.01 | 0.01 | 75 | 1008.0 |
| 20260505235031 | 62 | 316 | 0.9 | 4.3 | 0.00 | 0.01 | 0.01 | 72 | 1007.8 |
| 20260505234553 | 62 | 298 | 0.9 | 2.6 | 0.00 | 0.01 | 0.01 | 71 | 1007.8 |
| 20260505234032 | 62 | 0 | 0.0 | 3.5 | 0.00 | 0.01 | 0.01 | 71 | 1007.7 |
| 20260505233529 | 62 | 287 | 0.9 | 3.5 | 0.00 | 0.01 | 0.01 | 71 | 1007.8 |
| 20260505233044 | 62 | 0 | 0.0 | 2.6 | 0.00 | 0.01 | 0.01 | 72 | 1007.6 |
| 20260505232531 | 62 | 240 | 0.9 | 5.2 | 0.00 | 0.01 | 0.01 | 72 | 1007.5 |
| 20260505232032 | 62 | 223 | 0.0 | 5.2 | 0.00 | 0.01 | 0.01 | 72 | 1007.5 |
| 20260505231547 | 62 | 223 | 0.9 | 5.2 | 0.00 | 0.01 | 0.01 | 73 | 1007.4 |
| 20260505231033 | 62 | 192 | 0.9 | 2.6 | 0.00 | 0.01 | 0.01 | 76 | 1007.3 |
| 20260505230531 | 61 | 0 | 0.0 | 2.6 | 0.00 | 0.01 | 0.01 | 78 | 1007.3 |
| 20260505230048 | 61 | 232 | 0.0 | 2.6 | 0.00 | 0.01 | 0.01 | 81 | 1007.3 |
| 20260505225532 | 61 | 0 | 0.0 | 1.7 | 0.00 | 0.01 | 0.01 | 80 | 1007.5 |
| 20260505225031 | 61 | 323 | 0.0 | 1.7 | 0.00 | 0.01 | 0.01 | 80 | 1007.4 |
| 20260505224543 | 61 | 0 | 0.0 | 1.7 | 0.00 | 0.01 | 0.01 | 79 | 1007.5 |
| 20260505224032 | 61 | 0 | 0.0 | 1.7 | 0.00 | 0.01 | 0.01 | 80 | 1007.5 |
| 20260505223532 | 61 | 323 | 0.9 | 1.7 | 0.00 | 0.01 | 0.01 | 80 | 1007.3 |
| 20260505223051 | 61 | 323 | 0.0 | 2.6 | 0.00 | 0.01 | 0.01 | 80 | 1007.1 |
| 20260505222533 | 61 | 323 | 0.0 | 2.6 | 0.00 | 0.01 | 0.01 | 81 | 1007.0 |
| 20260505222031 | 61 | 310 | 0.9 | 2.6 | 0.01 | 0.01 | 0.01 | 81 | 1007.1 |
| 20260505221551 | 61 | 0 | 0.9 | 2.6 | 0.01 | 0.01 | 0.01 | 82 | 1007.1 |
| 20260505221031 | 61 | 232 | 0.0 | 1.7 | 0.01 | 0.01 | 0.01 | 83 | 1007.3 |
| 20260505220531 | 61 | 0 | 0.0 | 1.7 | 0.01 | 0.01 | 0.01 | 80 | 1007.7 |
| 20260505220047 | 61 | 232 | 0.0 | 3.5 | 0.01 | 0.01 | 0.01 | 78 | 1007.9 |
| 20260505215532 | 61 | 232 | 0.0 | 3.5 | 0.01 | 0.01 | 0.01 | 79 | 1007.9 |
| 20260505215032 | 61 | 0 | 0.9 | 3.5 | 0.01 | 0.01 | 0.01 | 77 | 1007.9 |
| 20260505214550 | 62 | 128 | 0.9 | 13.9 | 0.01 | 0.01 | 0.01 | 76 | 1007.9 |
| 20260505214032 | 62 | 221 | 1.7 | 13.9 | 0.01 | 0.01 | 0.01 | 76 | 1007.9 |
| 20260505213531 | 63 | 334 | 2.6 | 14.8 | 0.01 | 0.01 | 0.01 | 71 | 1007.8 |
| 20260505213046 | 64 | 325 | 3.5 | 18.2 | 0.01 | 0.01 | 0.01 | 69 | 1007.8 |
| 20260505212534 | 66 | 298 | 7.0 | 18.2 | 0.01 | 0.01 | 0.01 | 62 | 1007.8 |
| 20260505212032 | 70 | 178 | 9.6 | 18.2 | 0.00 | 0.00 | 0.00 | 51 | 1007.7 |
| 20260505211551 | 74 | 256 | 2.6 | 26.1 | 0.00 | 0.00 | 0.00 | 31 | 1006.8 |
| 20260505211033 | 74 | 84 | 3.5 | 26.1 | 0.00 | 0.00 | 0.00 | 32 | 1005.9 |
| 20260505210533 | 74 | 225 | 2.6 | 14.8 | 0.00 | 0.00 | 0.00 | 32 | 1005.7 |
| 20260505210048 | 74 | 256 | 3.5 | 12.2 | 0.00 | 0.00 | 0.00 | 34 | 1005.5 |
| 20260505205533 | 75 | 246 | 4.3 | 15.6 | 0.00 | 0.00 | 0.00 | 34 | 1005.3 |
| 20260505205033 | 75 | 157 | 3.5 | 15.6 | 0.00 | 0.00 | 0.00 | 33 | 1005.1 |
| 20260505204548 | 75 | 186 | 3.5 | 19.1 | 0.00 | 0.00 | 0.00 | 32 | 1005.0 |
| 20260505204032 | 75 | 209 | 8.7 | 19.1 | 0.00 | 0.00 | 0.00 | 32 | 1005.0 |
| 20260505203532 | 75 | 168 | 8.7 | 19.1 | 0.00 | 0.00 | 0.00 | 32 | 1004.9 |
| 20260505203048 | 75 | 232 | 5.2 | 15.6 | 0.00 | 0.00 | 0.00 | 32 | 1005.1 |